Retour au catalogue

STARLINK-5792

ActifCommunicationsVLEO
NORAD 56035·PAYLOAD·🇺🇸 United States

Lancé Mar 24, 2023 depuis Cape Canaveral Space Force Station

Loading…

Prochains Passages (prochaines 24 heures)

TLE

FraisSource: CelesTrak SupGP

Époque: Sep 14, 2026, 22:12 UTC

1 56035C 23042BB  26257.92548611  .00059290  00000+0  21470-2 0  2575
2 56035  43.0041  56.5283 0001878 279.8388 183.8402 15.27555061    15

Suivez STARLINK-5792 en temps réel avec AllMySat

Download on the App Store